Location: Vale
(35.4830°N, 81.3830°W)
Time: 04:52:46
(UTC-05:00)

Amateur Radio Satellites - All Passes

Search period start: 08 December 2016 04:22
Search period end: 09 December 2016 04:22
Location: Vale, 35.4830°N, 81.3830°W

Satellite Date Start Highest point End Downlink Frequencies (MHz)
Time Altitude Azimuth
MOZHAYETS 4 08 Dec 04:37:00 04:39:23 14° 267° (W) 04:41:46
YUBILEINY 08 Dec 04:37:04 04:41:27 14° 64° (ENE) 04:45:48 435.215
BRITE-PL 08 Dec 04:42:03 04:46:34 25° 95° (E) 04:51:10 437.365/2234.400
CUBESAT XI-V 08 Dec 04:42:57 04:47:32 90° 84° (E) 04:52:09 437.345
STARS 08 Dec 04:48:34 04:52:51 51° 260° (W) 04:57:11 437.465
KKS-1 08 Dec 04:49:45 04:53:15 23° 264° (W) 04:56:48 437.445
SO-50 08 Dec 04:50:28 04:54:57 62° 59° (ENE) 04:59:20 436.795
ITAMSAT 1 08 Dec 04:54:53 04:58:13 18° 295° (WNW) 05:01:33 435.822/435.867
BEESAT 3 08 Dec 05:07:47 05:11:25 37° 303° (WNW) 05:15:07 437.485
NOAA 15 08 Dec 05:22:00 05:23:56 12° 92° (E) 05:25:51 137.62
Cubesat XI-IV 08 Dec 05:32:28 05:35:10 14° 92° (E) 05:37:51 437.490
AO-7 08 Dec 05:34:00 05:41:11 33° 299° (WNW) 05:48:22 29.400- 29.500
LilacSat-2 08 Dec 05:38:52 05:40:44 13° 93° (E) 05:42:37 437.200
BEESAT 2 08 Dec 05:41:46 05:45:24 36° 304° (NW) 05:49:07 435.950
GOMX 1 08 Dec 05:44:16 05:49:29 42° 98° (E) 05:54:35 467.674
DOVE 4 08 Dec 05:44:53 05:48:08 16° 91° (E) 05:51:18 437.250
PHONESAT 2.4 08 Dec 05:48:40 05:49:57 13° 215° (SW) 05:51:13 2401.200-2431.200
HORYU 2 08 Dec 05:56:47 06:01:14 83° 282° (WNW) 06:05:38 437.375
STRAND 1 08 Dec 06:00:29 06:04:18 21° 67° (ENE) 06:08:05 437.568
Cosmos 2504 08 Dec 06:13:45 06:21:19 32° 72° (ENE) 06:28:26 435.465 / 435.565
BRITE-PL 08 Dec 06:19:55 06:25:02 40° 288° (WNW) 06:30:17 437.365/2234.400
YUBILEINY 08 Dec 06:30:42 06:39:35 83° 85° (E) 06:48:25 435.215
SO-50 08 Dec 06:33:45 06:34:48 11° 253° (WSW) 06:35:49 436.795
CUTE-I 08 Dec 06:43:31 06:48:52 76° 102° (ESE) 06:54:10 437.470
RS-15 08 Dec 06:45:27 06:56:41 58° 111° (ESE) 07:08:28 29.354- 29.394
CINEMA 3 08 Dec 06:47:02 06:49:47 15° 91° (E) 06:52:27 145.822/145.860
AIST 2 08 Dec 06:51:47 06:55:03 23° 111° (ESE) 06:58:21 435.215
Cosmos 2491 08 Dec 06:55:05 07:03:47 71° 93° (E) 07:12:29 435.465 / 435.565
NOAA 15 08 Dec 06:58:52 07:04:07 69° 285° (WNW) 07:09:22 137.62
Cubesat XI-IV 08 Dec 07:10:20 07:15:35 61° 287° (WNW) 07:20:48 437.490
LilacSat-2 08 Dec 07:11:44 07:15:06 31° 287° (WNW) 07:18:27 437.200
NOAA 18 08 Dec 07:12:04 07:17:37 84° 104° (ESE) 07:23:07 137.9125
AIST 1 08 Dec 07:17:10 07:21:33 68° 265° (W) 07:25:54
DOVE 4 08 Dec 07:21:00 07:26:05 51° 287° (WNW) 07:30:59 437.250
GOMX 1 08 Dec 07:22:57 07:27:12 23° 292° (WNW) 07:31:25 467.674
HO-68 08 Dec 07:24:55 07:31:15 32° 97° (E) 07:37:32 435.675
STRAND 1 08 Dec 07:38:21 07:43:09 40° 261° (W) 07:47:58 437.568
CUTE 1.7 + AOD 2 08 Dec 07:49:32 07:53:36 44° 99° (E) 07:57:38 437.475
AAUSAT CUBESAT 2 08 Dec 08:02:25 08:05:30 20° 95° (E) 08:08:35 437.432
Cosmos 2504 08 Dec 08:06:40 08:14:55 49° 271° (W) 08:22:39 435.465 / 435.565
CANX-2 08 Dec 08:07:56 08:12:09 89° 303° (WNW) 08:16:23 2200.000
PRISM 08 Dec 08:09:04 08:12:22 24° 70° (ENE) 08:15:41 437.425
CINEMA 3 08 Dec 08:22:39 08:27:08 43° 287° (WNW) 08:31:24 145.822/145.860
CUBEBUG 2 08 Dec 08:24:35 08:28:43 43° 99° (E) 08:32:43 437.445
CUTE-I 08 Dec 08:26:08 08:28:12 12° 298° (WNW) 08:30:16 437.470
SEEDS 08 Dec 08:28:22 08:32:34 90° 97° (E) 08:36:46 437.485
AIST 2 08 Dec 08:29:55 08:33:23 26° 307° (NW) 08:36:55 435.215
YUBILEINY 08 Dec 08:30:02 08:35:11 17° 281° (W) 08:40:21 435.215
COMPASS 1 08 Dec 08:34:14 08:38:22 68° 100° (E) 08:42:31 437.405
Oscar 11 08 Dec 08:36:08 08:39:09 19° 94° (E) 08:42:11 145.826/435.025
CUSAT 1 08 Dec 08:42:51 08:44:56 16° 96° (E) 08:46:50 437.405
Cosmos 2491 08 Dec 08:54:59 09:01:21 22° 291° (WNW) 09:07:45 435.465 / 435.565
NOAA 18 08 Dec 08:55:34 08:57:29 12° 300° (WNW) 08:59:23 137.9125
RS-15 08 Dec 08:58:35 09:09:34 42° 313° (NW) 09:21:04 29.354- 29.394
UWE-3 08 Dec 09:01:50 09:06:07 76° 102° (ESE) 09:10:15 435.000/436.395/437.385
HO-68 08 Dec 09:12:18 09:18:58 43° 293° (WNW) 09:25:38 435.675
UNISAT 6 08 Dec 09:24:19 09:28:41 40° 73° (ENE) 09:33:02 437.425
CUTE 1.7 + AOD 2 08 Dec 09:27:01 09:29:00 13° 293° (WNW) 09:30:59 437.475
AAUSAT CUBESAT 2 08 Dec 09:37:26 09:40:55 27° 289° (WNW) 09:44:24 437.432
ZACube-1 08 Dec 09:37:28 09:41:39 67° 283° (WNW) 09:45:45 437.345
FUNcube-1 08 Dec 09:43:46 09:47:54 61° 285° (WNW) 09:51:58 145.935
JAS-2 08 Dec 09:44:26 09:48:21 18° 66° (ENE) 09:52:02 435.910
PRISM 08 Dec 09:44:27 09:47:33 21° 264° (W) 09:50:42 437.425
DANDE 08 Dec 09:50:18 09:54:43 39° 97° (E) 09:58:08 436.750
TIGRISAT 08 Dec 09:53:10 09:57:51 80° 77° (ENE) 10:02:31 435.000
ANTELSAT 08 Dec 09:55:17 09:59:59 89° 70° (ENE) 10:04:39 437.575/2403.000
CUBEBUG 2 08 Dec 10:02:41 10:04:53 14° 294° (WNW) 10:07:04 437.445
JUGNU 08 Dec 10:02:57 10:05:25 13° 168° (SSE) 10:07:55 437.505
Oscar 11 08 Dec 10:11:31 10:15:17 31° 289° (WNW) 10:19:05 145.826/435.025
DELFI C3 08 Dec 10:14:00 10:18:00 82° 281° (WNW) 10:21:59 145.870
POPSAT HIP 1 08 Dec 10:15:08 10:17:17 14° 66° (ENE) 10:19:26 437.405
AO-85 08 Dec 10:34:03 10:37:50 44° 57° (ENE) 10:41:31 145.980
PCSat 08 Dec 10:39:10 10:44:19 47° 111° (ESE) 10:49:30 145.827
HUMSAT D 08 Dec 10:43:28 10:47:32 74° 284° (WNW) 10:51:35 437.325/437.525
Cosmos 2499 08 Dec 10:58:55 11:06:18 32° 72° (ENE) 11:13:11 435.465 / 435.565
ESTCUBE 1 08 Dec 11:02:03 11:05:28 21° 95° (E) 11:08:51 437.505/2401.250
UNISAT 6 08 Dec 11:02:26 11:05:29 17° 266° (W) 11:08:32 437.425
NANOSAT C BR1 08 Dec 11:05:40 11:09:48 50° 74° (ENE) 11:13:56 145.865
GONETS M04 08 Dec 11:08:56 11:16:44 35° 74° (ENE) 11:24:31
QB50P2 08 Dec 11:13:52 11:18:08 75° 77° (ENE) 11:22:26 145.880/145.840
POLYITAN 1 08 Dec 11:14:20 11:18:36 71° 76° (ENE) 11:22:53 437.675
CUBEBUG 1 08 Dec 11:17:36 11:20:39 18° 94° (E) 11:23:41 437.445
RS-15 08 Dec 11:19:58 11:26:53 16° 345° (NNW) 11:33:54 29.354- 29.394
DUCHIFAT 1 08 Dec 11:26:23 11:30:39 83° 77° (ENE) 11:34:55 145.980
QB50P1 08 Dec 11:26:31 11:30:48 82° 260° (W) 11:35:06 145.935-145.965
JAS-2 08 Dec 11:26:33 11:33:03 63° 258° (WSW) 11:38:48 435.910
VELOX 1 08 Dec 11:34:55 11:38:02 18° 94° (E) 11:41:08 145.980
DANDE 08 Dec 11:36:30 11:37:11 10° 282° (WNW) 11:37:50 436.750
DX 1 08 Dec 11:42:16 11:42:38 10° 92° (E) 11:43:00 434.975-435.025
POPSAT HIP 1 08 Dec 11:48:32 11:52:38 45° 261° (W) 11:56:45 437.405
SPROUT 08 Dec 11:49:20 11:52:09 17° 94° (E) 11:54:57 437.525
JUGNU 08 Dec 11:49:54 11:53:41 17° 178° (S) 11:57:28 437.505
BUGSAT 1 08 Dec 12:12:52 12:17:04 76° 257° (WSW) 12:21:21 437.445
50 SAT 08 Dec 12:14:13 12:17:37 42° 99° (E) 12:21:01 437.505
AO-85 08 Dec 12:16:38 12:17:44 11° 252° (WSW) 12:18:49 145.980
Oscar 19 08 Dec 12:16:43 12:20:56 26° 68° (ENE) 12:25:10 437.125/150
PCSat 08 Dec 12:23:45 12:27:55 22° 308° (NW) 12:32:07 145.827
AISAT 08 Dec 12:33:24 12:37:54 85° 285° (WNW) 12:42:21 437.250
Gurwin Techsat 1B 08 Dec 12:33:57 12:37:44 20° 66° (ENE) 12:41:33 435.225
ESTCUBE 1 08 Dec 12:38:17 12:42:15 31° 289° (WNW) 12:46:12 437.505/2401.250
NANOSAT C BR1 08 Dec 12:44:28 12:45:45 11° 268° (W) 12:47:02 145.865
Cosmos 2499 08 Dec 12:51:39 12:59:34 46° 272° (W) 13:06:56 435.465 / 435.565
CUBEBUG 1 08 Dec 12:52:58 12:56:59 34° 288° (WNW) 13:00:58 437.445
TISAT 1 08 Dec 13:02:01 13:04:47 17° 94° (E) 13:07:32 437.305
GONETS M04 08 Dec 13:05:29 13:13:35 45° 272° (W) 13:21:43
VELOX 1 08 Dec 13:10:30 13:14:32 34° 289° (WNW) 13:18:33 145.980
DX 1 08 Dec 13:14:48 13:19:08 58° 286° (WNW) 13:23:25 434.975-435.025
UKube-1 08 Dec 13:16:42 13:21:02 77° 284° (WNW) 13:25:21 .
SPROUT 08 Dec 13:24:16 13:28:07 33° 288° (WNW) 13:31:57 437.525
BEESAT 3 08 Dec 13:27:12 13:31:00 42° 57° (ENE) 13:34:47 437.485
SRMSAT 08 Dec 13:33:57 13:37:25 16° 174° (S) 13:40:53 437.500
JUGNU 08 Dec 13:38:41 13:41:57 15° 188° (S) 13:45:14 437.505
RS-15 08 Dec 13:38:42 13:46:46 19° 23° (NNE) 13:54:44 29.354- 29.394
M-CUBED/EXP-1 PRIME 08 Dec 13:54:20 13:54:44 10° 94° (E) 13:55:07 437.505
Oscar 19 08 Dec 13:55:35 14:00:05 31° 263° (W) 14:04:38 437.125/150
BEESAT 2 08 Dec 14:01:57 14:05:51 45° 57° (ENE) 14:09:43 435.950
SWISSCUBE 08 Dec 14:10:05 14:13:43 22° 95° (E) 14:17:21 437.505
Gurwin Techsat 1B 08 Dec 14:12:15 14:17:19 45° 261° (W) 14:22:25 435.225
BEESAT 08 Dec 14:13:53 14:17:29 21° 95° (E) 14:21:03 436.000
ITAMSAT 1 08 Dec 14:29:00 14:34:05 57° 73° (ENE) 14:39:12 435.822/435.867
AO-7 08 Dec 14:36:12 14:44:10 54° 67° (ENE) 14:52:11 29.400- 29.500
TISAT 1 08 Dec 14:36:41 14:40:28 32° 288° (WNW) 14:44:12 437.305
ITUPSAT 1 08 Dec 14:42:37 14:47:08 42° 99° (E) 14:51:38 437.325
MOZHAYETS 4 08 Dec 14:57:12 14:59:29 14° 92° (E) 15:01:46
ISS 08 Dec 14:59:03 15:02:15 57° 135° (SE) 15:05:29 145.825
BEESAT 3 08 Dec 15:06:21 15:08:13 13° 252° (WSW) 15:10:05 437.485
AUBIESAT-1 08 Dec 15:10:25 15:14:57 67° 106° (ESE) 15:19:12 437.475
O/OREOS (USA 219) 08 Dec 15:18:26 15:22:48 47° 106° (ESE) 15:27:11 437.305
SRMSAT 08 Dec 15:22:13 15:25:50 17° 184° (S) 15:29:27 437.500
M-CUBED/EXP-1 PRIME 08 Dec 15:25:00 15:29:37 66° 290° (WNW) 15:33:58 437.505
BEESAT 2 08 Dec 15:41:31 15:43:12 12° 252° (WSW) 15:44:53 435.950
SWISSCUBE 08 Dec 15:47:18 15:51:31 33° 289° (WNW) 15:55:44 437.505
BEESAT 08 Dec 15:51:01 15:55:16 33° 290° (WNW) 15:59:30 436.000
RS-15 08 Dec 15:51:04 16:03:08 54° 52° (NE) 16:14:45 29.354- 29.394
BRITE-PL 08 Dec 15:51:33 15:54:10 16° 65° (ENE) 15:56:54 437.365/2234.400
ITAMSAT 1 08 Dec 16:11:04 16:13:52 14° 267° (W) 16:16:40 435.822/435.867
ITUPSAT 1 08 Dec 16:21:30 16:24:36 18° 294° (WNW) 16:27:42 437.325
CUTE-I 08 Dec 16:27:24 16:28:20 10° 61° (ENE) 16:29:16 437.470
AO-7 08 Dec 16:30:09 16:37:08 30° 263° (W) 16:44:12 29.400- 29.500
MOZHAYETS 4 08 Dec 16:32:29 16:36:51 47° 286° (WNW) 16:41:13
ISS 08 Dec 16:36:50 16:39:00 16° 331° (NNW) 16:41:11 145.825
NOAA 15 08 Dec 16:38:52 16:41:52 16° 64° (ENE) 16:44:53 137.62
STARS 08 Dec 16:40:59 16:45:01 34° 98° (E) 16:49:02 437.465
KKS-1 08 Dec 16:42:26 16:46:56 86° 103° (ESE) 16:51:23 437.445
CUBESAT XI-V 08 Dec 16:42:49 16:46:49 28° 96° (E) 16:50:50 437.345
AUBIESAT-1 08 Dec 16:47:09 16:48:40 12° 302° (WNW) 16:50:10 437.475
DOVE 4 08 Dec 16:48:35 16:50:21 12° 62° (ENE) 16:52:09 437.250
GOMX 1 08 Dec 16:49:43 16:53:39 28° 69° (ENE) 16:57:50 467.674
Cubesat XI-IV 08 Dec 16:51:13 16:54:53 19° 65° (ENE) 16:58:33 437.490
HORYU 2 08 Dec 16:51:23 16:55:48 61° 75° (ENE) 17:00:13 437.375
AIST 2 08 Dec 16:53:04 16:57:19 79° 62° (ENE) 17:01:31 435.215
NOAA 18 08 Dec 16:57:54 17:00:50 15° 62° (ENE) 17:03:45 137.9125
O/OREOS (USA 219) 08 Dec 16:59:49 17:02:27 15° 301° (WNW) 17:05:04 437.305
Cosmos 2491 08 Dec 17:09:57 17:17:21 30° 72° (ENE) 17:24:40 435.465 / 435.565
SRMSAT 08 Dec 17:12:43 17:14:13 11° 194° (SSW) 17:15:43 437.500
BRITE-PL 08 Dec 17:28:13 17:32:14 39° 263° (W) 17:36:32 437.365/2234.400
YUBILEINY 08 Dec 17:35:05 17:40:23 18° 80° (E) 17:45:42 435.215
CINEMA 3 08 Dec 17:46:29 17:48:19 12° 64° (ENE) 17:50:11 145.822/145.860
LilacSat-2 08 Dec 17:49:50 17:53:40 74° 77° (ENE) 17:57:30 437.200
HO-68 08 Dec 17:52:12 17:56:46 18° 59° (ENE) 18:01:20 435.675
CUTE-I 08 Dec 18:02:10 18:07:34 89° 258° (WSW) 18:12:57 437.470
RS-15 08 Dec 18:04:07 18:15:19 44° 253° (WSW) 18:26:08 29.354- 29.394
NOAA 15 08 Dec 18:15:57 18:21:06 58° 259° (WSW) 18:26:17 137.62
STARS 08 Dec 18:18:04 18:21:04 18° 293° (WNW) 18:24:04 437.465
CUBESAT XI-V 08 Dec 18:20:16 18:24:03 25° 290° (WNW) 18:27:50 437.345
DOVE 4 08 Dec 18:22:30 18:27:16 71° 259° (W) 18:32:21 437.250
GOMX 1 08 Dec 18:27:58 18:31:41 24° 266° (W) 18:35:38 467.674
Cubesat XI-IV 08 Dec 18:29:20 18:34:31 50° 260° (W) 18:39:45 437.490
NOAA 18 08 Dec 18:35:19 18:40:49 70° 257° (WSW) 18:46:23 137.9125
CUTE 1.7 + AOD 2 08 Dec 18:39:45 18:42:59 22° 70° (ENE) 18:46:12 437.475
Cosmos 2504 08 Dec 18:48:08 18:54:54 28° 83° (E) 19:01:56 435.465 / 435.565
CANX-2 08 Dec 18:57:32 19:01:29 41° 74° (ENE) 19:05:27 2200.000
SO-50 08 Dec 19:01:27 19:05:56 42° 115° (ESE) 19:10:24 436.795
Cosmos 2491 08 Dec 19:06:06 19:14:27 53° 270° (W) 19:22:47 435.465 / 435.565
CUSAT 1 08 Dec 19:15:39 19:17:49 13° 77° (ENE) 19:20:13 437.405
SEEDS 08 Dec 19:16:56 19:20:48 39° 73° (ENE) 19:24:41 437.485
CUBEBUG 2 08 Dec 19:19:18 19:23:18 28° 71° (ENE) 19:27:17 437.445
CINEMA 3 08 Dec 19:19:50 19:24:45 72° 259° (WSW) 19:29:47 145.822/145.860
COMPASS 1 08 Dec 19:22:06 19:25:40 29° 72° (ENE) 19:29:14 437.405
YUBILEINY 08 Dec 19:27:21 19:36:03 79° 277° (W) 19:44:50 435.215
Oscar 11 08 Dec 19:30:21 19:31:07 10° 65° (ENE) 19:31:52 145.826/435.025
PCSat 08 Dec 19:30:35 19:34:43 22° 52° (NE) 19:38:49 145.827
HO-68 08 Dec 19:36:30 19:43:39 78° 255° (WSW) 19:50:52 435.675
AIST 1 08 Dec 19:42:51 19:47:09 81° 95° (E) 19:51:30
STRAND 1 08 Dec 19:51:28 19:56:35 88° 104° (ESE) 20:01:40 437.568
UWE-3 08 Dec 19:55:09 19:59:33 42° 73° (ENE) 20:03:53 435.000/436.395/437.385
CUTE 1.7 + AOD 2 08 Dec 20:15:09 20:18:39 25° 264° (W) 20:22:10 437.475
AAUSAT CUBESAT 2 08 Dec 20:23:39 20:27:41 61° 259° (W) 20:31:46 437.432
ZACube-1 08 Dec 20:29:25 20:33:55 62° 75° (ENE) 20:38:21 437.345
DANDE 08 Dec 20:30:13 20:32:08 15° 79° (E) 20:34:17 436.750
FUNcube-1 08 Dec 20:35:23 20:39:52 67° 76° (ENE) 20:44:19 145.935
CANX-2 08 Dec 20:35:30 20:37:30 13° 268° (W) 20:39:31 2200.000
Cosmos 2504 08 Dec 20:39:30 20:47:38 56° 281° (W) 20:56:18 435.465 / 435.565
SO-50 08 Dec 20:42:55 20:46:34 21° 310° (NW) 20:50:10 436.795
SEEDS 08 Dec 20:54:33 20:56:38 14° 267° (W) 20:58:43 437.485
CUSAT 1 08 Dec 20:55:30 20:59:32 45° 263° (W) 21:04:44 437.405
CUBEBUG 2 08 Dec 20:55:51 20:59:48 26° 264° (W) 21:03:45 437.445
DELFI C3 08 Dec 20:56:39 21:00:12 34° 73° (ENE) 21:03:47 145.870
COMPASS 1 08 Dec 20:58:22 21:01:13 18° 266° (W) 21:04:04 437.405
Oscar 11 08 Dec 21:02:25 21:06:41 60° 260° (W) 21:10:57 145.826/435.025
PCSat 08 Dec 21:13:08 21:18:21 49° 249° (WSW) 21:23:32 145.827
PRISM 08 Dec 21:27:32 21:31:40 61° 102° (ESE) 21:35:47 437.425
ISS 08 Dec 21:29:47 21:32:22 21° 31° (NNE) 21:34:56 145.825
YUBILEINY 08 Dec 21:30:31 21:34:17 13° 297° (WNW) 21:38:05 435.215
HUMSAT D 08 Dec 21:31:16 21:35:19 48° 74° (ENE) 21:39:20 437.325/437.525
HO-68 08 Dec 21:31:39 21:32:17 10° 271° (W) 21:32:55 435.675
UWE-3 08 Dec 21:33:17 21:36:06 16° 267° (W) 21:38:56 435.000/436.395/437.385
TIGRISAT 08 Dec 21:48:53 21:52:01 19° 94° (E) 21:55:06 435.000
ANTELSAT 08 Dec 21:50:57 21:54:20 22° 95° (E) 21:57:39 437.575/2403.000
ESTCUBE 1 08 Dec 21:59:51 22:02:08 14° 66° (ENE) 22:04:24 437.505/2401.250
PHONESAT 2.4 08 Dec 22:02:59 22:04:45 16° 146° (SE) 22:06:31 2401.200-2431.200
ZACube-1 08 Dec 22:10:17 22:10:30 10° 269° (W) 22:10:42 437.345
DANDE 08 Dec 22:12:17 22:14:39 19° 263° (W) 22:17:25 436.750
CUBEBUG 1 08 Dec 22:12:42 22:13:45 11° 64° (ENE) 22:14:49 437.445
VELOX 1 08 Dec 22:30:51 22:32:29 12° 65° (ENE) 22:34:08 145.980
DELFI C3 08 Dec 22:33:07 22:35:06 14° 267° (W) 22:37:07 145.870
JAS-2 08 Dec 22:40:02 22:43:12 16° 94° (E) 22:46:28 435.910
50 SAT 08 Dec 22:48:42 22:49:48 11° 68° (ENE) 22:50:54 437.505
UNISAT 6 08 Dec 22:55:30 22:59:48 59° 285° (WNW) 23:04:00 437.425
QB50P2 08 Dec 23:03:11 23:05:39 15° 93° (E) 23:08:06 145.880/145.840
POLYITAN 1 08 Dec 23:03:48 23:06:04 14° 93° (E) 23:08:20 437.675
ISS 08 Dec 23:05:51 23:08:57 37° 227° (SW) 23:12:02 145.825
HUMSAT D 08 Dec 23:09:49 23:11:07 11° 268° (W) 23:12:26 437.325/437.525
DUCHIFAT 1 08 Dec 23:14:42 23:17:20 16° 94° (E) 23:19:56 145.980
QB50P1 08 Dec 23:15:06 23:18:11 19° 95° (E) 23:21:15 145.935-145.965
TIGRISAT 08 Dec 23:24:57 23:28:42 29° 289° (WNW) 23:32:24 435.000
ANTELSAT 08 Dec 23:27:22 23:30:59 26° 290° (WNW) 23:34:32 437.575/2403.000
AISAT 08 Dec 23:27:22 23:31:42 56° 74° (ENE) 23:36:04 437.250
Cosmos 2499 08 Dec 23:31:03 23:38:03 29° 83° (E) 23:45:15 435.465 / 435.565
ESTCUBE 1 08 Dec 23:34:10 23:38:28 48° 260° (W) 23:42:49 437.505/2401.250
POPSAT HIP 1 08 Dec 23:36:19 23:40:10 34° 98° (E) 23:44:00 437.405
PHONESAT 2.4 08 Dec 23:37:05 23:39:44 68° 341° (NNW) 23:42:22 2401.200-2431.200
CUBEBUG 1 08 Dec 23:45:10 23:49:28 61° 260° (W) 23:53:49 437.445
BUGSAT 1 08 Dec 23:58:38 00:01:36 19° 95° (E) 00:04:31 437.445
VELOX 1 09 Dec 00:04:05 00:08:24 56° 259° (W) 00:12:46 145.980
GONETS M04 09 Dec 00:05:59 00:14:04 45° 88° (E) 00:22:08
DX 1 09 Dec 00:06:50 00:11:10 80° 75° (ENE) 00:15:33 434.975-435.025
UKube-1 09 Dec 00:07:50 00:12:04 59° 74° (ENE) 00:16:19 .
SPROUT 09 Dec 00:13:50 00:18:06 67° 258° (WSW) 00:22:25 437.525
50 SAT 09 Dec 00:19:31 00:22:43 34° 261° (W) 00:25:57 437.505
JAS-2 09 Dec 00:23:27 00:28:30 51° 287° (WNW) 00:33:56 435.910
NANOSAT C BR1 09 Dec 00:28:28 00:32:36 55° 285° (WNW) 00:36:41 145.865
Oscar 19 09 Dec 00:33:16 00:34:48 11° 91° (E) 00:36:20 437.125/150
QB50P2 09 Dec 00:37:39 00:41:33 36° 288° (WNW) 00:45:25 145.880/145.840
POLYITAN 1 09 Dec 00:38:04 00:42:00 38° 287° (WNW) 00:45:53 437.675
AO-85 09 Dec 00:44:43 00:49:17 35° 114° (ESE) 00:53:35 145.980
DUCHIFAT 1 09 Dec 00:49:17 00:53:05 34° 288° (WNW) 00:56:51 145.980
QB50P1 09 Dec 00:50:18 00:53:56 28° 289° (WNW) 00:57:32 145.935-145.965
AISAT 09 Dec 01:07:29 01:08:28 11° 268° (W) 01:09:28 437.250
PHONESAT 2.4 09 Dec 01:12:51 01:15:10 26° 356° (N) 01:17:29 2401.200-2431.200
POPSAT HIP 1 09 Dec 01:12:56 01:15:38 17° 292° (WNW) 01:18:20 437.405
SWISSCUBE 09 Dec 01:14:05 01:17:23 19° 67° (ENE) 01:20:40 437.505
BEESAT 09 Dec 01:17:51 01:21:05 18° 66° (ENE) 01:24:19 436.000
Cosmos 2499 09 Dec 01:22:13 01:30:34 56° 281° (WNW) 01:39:17 435.465 / 435.565
TISAT 1 09 Dec 01:24:22 01:28:35 68° 259° (WSW) 01:32:49 437.305
O/OREOS (USA 219) 09 Dec 01:31:20 01:35:44 54° 68° (ENE) 01:40:06 437.305
BUGSAT 1 09 Dec 01:33:23 01:36:58 28° 289° (WNW) 01:40:29 437.445
ITUPSAT 1 09 Dec 01:46:23 01:50:44 36° 71° (ENE) 01:55:04 437.325
AUBIESAT-1 09 Dec 01:52:41 01:56:41 48° 69° (ENE) 02:00:57 437.475
GONETS M04 09 Dec 02:03:10 02:10:55 35° 286° (WNW) 02:18:42
M-CUBED/EXP-1 PRIME 09 Dec 02:07:36 02:11:42 89° 244° (WSW) 02:16:09 437.505
Oscar 19 09 Dec 02:09:22 02:14:33 71° 285° (WNW) 02:19:43 437.125/150
AO-85 09 Dec 02:25:44 02:29:45 25° 307° (NW) 02:33:32 145.980
Gurwin Techsat 1B 09 Dec 02:31:12 02:36:33 89° 284° (WNW) 02:41:51 435.225
AO-7 09 Dec 02:42:41 02:48:23 20° 94° (E) 02:54:02 29.400- 29.500
ITAMSAT 1 09 Dec 02:45:28 02:49:44 25° 96° (E) 02:53:57 435.822/435.867
PHONESAT 2.4 09 Dec 02:48:14 02:50:43 35° 13° (NNE) 02:53:12 2401.200-2431.200
SWISSCUBE 09 Dec 02:50:23 02:54:50 39° 261° (W) 02:59:19 437.505
BEESAT 09 Dec 02:54:02 02:58:31 40° 261° (W) 03:03:01 436.000
O/OREOS (USA 219) 09 Dec 03:13:24 03:14:34 11° 262° (W) 03:15:44 437.305
BEESAT 3 09 Dec 03:16:03 03:18:10 14° 109° (ESE) 03:20:18 437.485
ITUPSAT 1 09 Dec 03:25:06 03:28:36 20° 265° (W) 03:32:06 437.325
AUBIESAT-1 09 Dec 03:29:30 03:31:23 13° 264° (W) 03:33:18 437.475
MOZHAYETS 4 09 Dec 03:30:47 03:35:22 73° 259° (W) 03:39:56
STARS 09 Dec 03:35:00 03:38:25 22° 68° (ENE) 03:41:49 437.465
SO-50 09 Dec 03:36:29 03:39:33 18° 48° (NE) 03:42:34 436.795
KKS-1 09 Dec 03:37:11 03:41:32 53° 73° (ENE) 03:45:54 437.445
CUBESAT XI-V 09 Dec 03:43:47 03:47:04 20° 68° (ENE) 03:50:21 437.345
BEESAT 2 09 Dec 03:51:56 03:54:24 16° 109° (ESE) 03:56:53 435.950
